Powrót do katalogu

FENGYUN 1C DEB

AktywnyPO
NORAD 31666·DEBRIS·🇨🇳 China

Wystrzelony May 10, 1999 z Taiyuan Satellite Launch Center

Loading…

Następne Przeloty (najbliższe 24 godziny)

TLE

ŚwieżeSource: Space-Track

Epoka: Sep 14, 2026, 10:43 UTC

1 31666U 99025CBY 26257.44698735  .00025090  00000-0  18804-2 0  9994
2 31666  98.6655  79.1749 0014722 337.4016  22.6556 15.02591363 13544

Śledź FENGYUN 1C DEB w czasie rzeczywistym z AllMySat

Download on the App Store